Providence, RI

2:48 AM EDT on March 30, 2017 (GMT -0400)
Green State

Weather History for KPVD - June, 2013

Change the Weather History Date:

Saturday, June 29, 2013

  Actual Average Record
Temperature  
Mean Temperature 75 °F 72 °F  
Max Temperature 81 °F 81 °F 96 °F (1934)
Min Temperature 69 °F 62 °F 46 °F (1919)
Degree Days  
Heating Degree Days 0 0  
Month to date heating degree days 24 41  
Since 1 June heating degree days 24 41  
Since 1 July heating degree days 5318 5616  
Cooling Degree Days 10 7  
Month to date cooling degree days 154 126  
Year to date cooling degree days 198 152  
Since 1 June cooling degree days 154 126  
Growing Degree Days 24 (Base 50)    
Moisture  
Dew Point 68 °F    
Average Humidity 79    
Maximum Humidity 100    
Minimum Humidity 58    
Precipitation  
Precipitation 0.04 in 0.09 in 0.68 in (1943)
Month to date precipitation 9.90 3.55  
Year to date precipitation 24.50 23.62  
Snow  
Snow 0.00 in 0.00 in 0.00 in (2002)
Month to date snowfall 0.0 0.0  
Since 1 June snowfall 0.0 0.0  
Since 1 July snowfall 46.3 33.8  
Snow Depth 0.00 in    
Sea Level Pressure  
Sea Level Pressure 29.62 in    
Wind  
Wind Speed 10 mph (South)    
Max Wind Speed 22 mph    
Max Gust Speed 28 mph    
Visibility 7 miles    
Events Rain    
T = Trace of Precipitation, MM = Missing Value Source: NWS Daily Summary

Daily Weather History Graph

Daily Weather History Graph

Search for Another Location

Airport or City:

Trip Planner

Search our weather history database for the weather conditions in past years. The results will help you decide how hot, cold, wet, or windy it might be!

Date:

Astronomy

Jun. 29, 2013 Rise Set
Actual Time 5:14 AM EDT 8:24 PM EDT
Civil Twilight 4:39 AM EDT 8:58 PM EDT
Nautical Twilight 3:56 AM EDT 9:42 PM EDT
Astronomical Twilight 3:03 AM EDT 10:34 PM EDT
Moon No Moon Rise 12:28 PM EDT (6/29)
Length of Visible Light 16h 18m
Length of Day
15h 10m
Waning Gibbous, 56% of the Moon is Illuminated
Jun 29
Waning Gibbous
Jun 30
Last Quarter
Jul 8
New
Jul 15
First Quarter
Jul 22
Full

Hourly Weather History & Observations

Time (EDT) Temp. Heat Index Dew Point Humidity Pressure Visibility Wind Dir Wind Speed Gust Speed Precip Events Conditions
12:51 AM 71.1 °F - 70.0 °F 96% 29.56 in 2.5 mi South 6.9 mph - 0.00 in   Overcast
1:23 AM 69.8 °F - 69.8 °F 100% 29.55 in 1.2 mi SE 6.9 mph - N/A   Overcast
1:51 AM 69.1 °F - 68.0 °F 96% 29.54 in 1.2 mi SSE 5.8 mph - N/A   Overcast
2:51 AM 70.0 °F - 69.1 °F 97% 29.53 in 2.0 mi South 5.8 mph - N/A   Overcast
3:13 AM 69.8 °F - 69.8 °F 100% 29.53 in 1.5 mi SSE 4.6 mph - N/A   Overcast
3:51 AM 69.1 °F - 69.1 °F 100% 29.53 in 0.8 mi SSE 3.5 mph - N/A   Mist
4:40 AM 69.8 °F - 69.8 °F 100% 29.54 in 1.0 mi South 9.2 mph - 0.01 in   Mist
4:51 AM 69.1 °F - 69.1 °F 100% 29.55 in 1.0 mi SSE 10.4 mph - 0.01 in Rain Light Rain
5:14 AM 69.8 °F - 69.8 °F 100% 29.56 in 2.5 mi South 10.4 mph - 0.00 in Rain Light Rain
5:27 AM 69.8 °F - 69.8 °F 100% 29.56 in 3.0 mi SE 6.9 mph - 0.02 in Rain Light Rain
5:51 AM 70.0 °F - 69.1 °F 97% 29.56 in 4.0 mi SSW 8.1 mph - 0.03 in   Overcast
6:51 AM 71.1 °F - 69.1 °F 93% 29.57 in 6.0 mi South 5.8 mph - N/A   Overcast
7:51 AM 71.1 °F - 69.1 °F 93% 29.58 in 7.0 mi South 8.1 mph - N/A   Overcast
8:51 AM 72.0 °F - 69.1 °F 91% 29.61 in 7.0 mi South 4.6 mph - N/A   Overcast
9:27 AM 73.4 °F - 69.8 °F 88% 29.61 in 10.0 mi South 10.4 mph - N/A   Mostly Cloudy
9:51 AM 73.0 °F - 69.1 °F 87% 29.61 in 8.0 mi SSW 10.4 mph - 0.00 in   Overcast
10:51 AM 73.0 °F - 69.1 °F 87% 29.61 in 7.0 mi South 8.1 mph - 0.00 in   Overcast
11:51 AM 75.0 °F - 68.0 °F 79% 29.62 in 10.0 mi SSW 9.2 mph - 0.00 in   Mostly Cloudy
11:58 AM 75.2 °F - 69.8 °F 83% 29.62 in 10.0 mi SSW 8.1 mph - N/A   Mostly Cloudy
12:51 PM 79.0 °F - 68.0 °F 69% 29.63 in 10.0 mi SSW 13.8 mph - N/A   Mostly Cloudy
1:51 PM 80.1 °F 82.3 °F 66.9 °F 64% 29.63 in 10.0 mi SSW 10.4 mph - N/A   Mostly Cloudy
2:51 PM 79.0 °F - 64.9 °F 62% 29.64 in 10.0 mi South 17.3 mph 21.9 mph N/A   Mostly Cloudy
3:51 PM 80.1 °F 81.9 °F 64.9 °F 60% 29.65 in 10.0 mi South 18.4 mph 23.0 mph N/A   Mostly Cloudy
4:51 PM 79.0 °F - 66.0 °F 64% 29.66 in 10.0 mi South 19.6 mph - N/A   Mostly Cloudy
5:51 PM 77.0 °F - 68.0 °F 74% 29.67 in 10.0 mi SSW 17.3 mph 23.0 mph N/A   Mostly Cloudy
6:51 PM 75.0 °F - 68.0 °F 79% 29.67 in 10.0 mi SSW 11.5 mph - N/A   Mostly Cloudy
7:15 PM 73.4 °F - 68.0 °F 83% 29.68 in 10.0 mi South 15.0 mph - N/A   Mostly Cloudy
7:51 PM 73.0 °F - 66.9 °F 81% 29.69 in 10.0 mi SSW 13.8 mph 21.9 mph N/A   Mostly Cloudy
8:24 PM 73.4 °F - 68.0 °F 83% 29.69 in 10.0 mi SW 9.2 mph - N/A   Overcast
8:51 PM 73.0 °F - 68.0 °F 84% 29.70 in 10.0 mi SSW 13.8 mph - N/A   Overcast
9:51 PM 72.0 °F - 68.0 °F 87% 29.73 in 10.0 mi SSW 12.7 mph - N/A   Overcast
10:19 PM 71.6 °F - 68.0 °F 88% 29.74 in 9.0 mi South 11.5 mph 18.4 mph N/A   Overcast
10:51 PM 71.1 °F - 68.0 °F 90% 29.75 in 8.0 mi SSW 9.2 mph - N/A   Overcast
11:51 PM 71.1 °F - 68.0 °F 90% 29.75 in 8.0 mi SSW 5.8 mph - N/A   Overcast